Hourly Data Report for October 14, 2019

PINAWA
MANITOBA
Current Station Operator: ECCC - MSC

50°10'38.020" N
96°03'53.000" W
268.00 m
503B1ER
71448
WEA

Download Data

Hourly Data (October 2019)
Hourly Data Report for October 14, 2019
TIME
LST
Temp Definition
°C
Dew Point Definition
°C
Rel Hum Definition
%
Precip. Amount Definition
mm

Wind Dir Definition
10's deg

Wind Spd Definition
km/h
Visibility Definition
km
Stn Press Definition
kPa
Hmdx Definition


Wind Chill Definition


Weather Definition


00:00 0.9 LegendMM LegendMM LegendMM 27 8   97.83     LegendNANA
01:00 0.7 LegendMM LegendMM LegendMM 28 7   97.84     LegendNANA
02:00 0.6 LegendMM LegendMM LegendMM 27 6   97.85     LegendNANA
03:00 0.4 LegendMM LegendMM LegendMM 27 6   97.86     LegendNANA
04:00 0.0 LegendMM LegendMM LegendMM 25 7   97.90   -2 LegendNANA
05:00 -0.1 LegendMM LegendMM LegendMM 25 7   97.87   -3 LegendNANA
06:00 -0.1 LegendMM LegendMM LegendMM 28 7   97.92   -3 LegendNANA
07:00 0.2 LegendMM LegendMM LegendMM 27 6   97.94     LegendNANA
08:00 0.1 LegendMM LegendMM LegendMM 25 4   97.96     LegendNANA
09:00 0.6 LegendMM LegendMM LegendMM 27 9   97.97     LegendNANA
10:00 1.8 LegendMM LegendMM LegendMM 27 7   97.99     LegendNANA
11:00 2.3 LegendMM LegendMM LegendMM 25 4   98.01     LegendNANA
12:00 3.2 LegendMM LegendMM LegendMM 24 5   98.01     LegendNANA
13:00 3.8 LegendMM LegendMM LegendMM 26 5   97.99     LegendNANA
14:00 4.7 LegendMM LegendMM LegendMM 24 5   97.98     LegendNANA
15:00 4.9 LegendMM LegendMM LegendMM 23 4   97.97     LegendNANA
16:00 4.4 LegendMM LegendMM LegendMM 26 4   97.99     LegendNANA
17:00 4.0 LegendMM LegendMM LegendMM 26 5   97.99     LegendNANA
18:00 3.5 LegendMM LegendMM LegendMM 27 4   98.03     LegendNANA
19:00 3.4 LegendMM LegendMM LegendMM   0   98.05     LegendNANA
20:00 2.8 LegendMM LegendMM LegendMM 13 2   98.07     LegendNANA
21:00 3.0 LegendMM LegendMM LegendMM 17 2   98.11     LegendNANA
22:00 2.4 LegendMM LegendMM LegendMM   0   98.13     LegendNANA
23:00 2.1 LegendMM LegendMM LegendMM 17 2   98.12     LegendNANA

Notes on Data Quality.

Legend

  • E = Estimated
  • M = Missing
  • NA = Not Available*
  • [empty] = Indicates an unobserved value
Date modified: